Погода в Николаевке

Россия / Амурская область     53°34′42″N   127°01′02″E
темп.,
°C
ветер,
м/с
пор.,
м/с
влажн.,
%
обл.,
%
осадки,
мм/ч
давл.,
гПа
погр.,
м
23 апреля, пт
пт2300:000сз6125656 0.0 1025649
03:00−2сз6124849 0.0 1027719
06:00−2сз51046100 0.0 1030933
09:00+2ссз61031100 0.0 10311312
12:00+4ссз68287 0.0 10311736
15:00+5ссз68296 0.0 10302078
18:00+4ссз58365 0.0 10312113
21:00−1сз27562 0.0 1032128
24 апреля, сб
сб2400:00−2з26640 0.0 1032124
03:00−2з3115843 0.0 1030322
06:00−1зсз4125741 0.0 1029488
09:00+4сз7123642 0.0 10292313
12:00+7ссз81429100 0.0 10273141
15:00+7сз71341100 0.0 10252446
18:00+6сз7155346 0.1 10242110
21:00+3ссз613565 0.1 1025869
25 апреля, вс
вс2500:00+1ссз411635 0.0 1028435
03:00−3с11681 0.0 102816
06:00−2зсз13742 0.0 102879
09:00+5сз35481 0.0 1026930
12:00+10зсз353287 0.0 10232063
15:00+12зсз4631100 0.0 10192314
18:00+11зюз253633 0.0 10171171
21:00+6ююз1149100 0.0 101710
26 апреля, пн
пн2600:00+4юв1154100 0.0 101510
03:00+4в2258100 0.0 101328
06:00+4вюв5958100 0.0 1010182
09:00+9юв363996 0.0 1008527
12:00+13юв4632100 0.0 10051106
15:00+17юв5722100 0.0 10001854
18:00+16ююз61031100 0.0 9981426
21:00+13юв41145100 0.2 996342
27 апреля, вт
вт2700:00+12ю2647100 0.0 994121
03:00+10з3873100 0.4 994425
06:00+7з1382100 0.0 994108
09:00+7з2380100 0.6 994389
12:00+6ссв128689 6.4 995267
15:00+8з2377100 6.6 995832
18:00+6с348894 0.3 995340
21:00+4сз2495100 0.4 996116